Flag for Germany Weather past 2 weeks in Homburg (Saar), Saarland, Germany

Now
68 °F

Passing clouds.


Feels Like: 68 °F
Forecast: 41 / 63 °F
Wind: 8 mph from Southeast

Location: Saarbruecken / Ensheim

Current Time: Apr 21, 2015 at 2:47:12 PM

Latest Report: Apr 21, 2015 at 2:20 PM


Visibility: N/A

Pressure: 30.36 "Hg

Humidity: 28%

Dew point: 34 °F

Location of Homburg (Saar)Location

Historic Weather in Homburg (Saar) — Graph

°F

Homburg (Saar) temperature yesterday

Maximum temperature yesterday: 64 °F (at 2:20 PM)
Minimum temperature yesterday: 41 °F (at 6:20 AM)
Average temperature yesterday: 54 °F

Past Weeks' High & Low Weather Summary

 TemperatureHumidityPressure
High75 °F (Apr 15, 2:50 PM)100% (Apr 12, 7:20 AM)30.63 "Hg (Apr 12, 7:20 AM)
Low32 °F (Apr 7, 5:50 AM)17% (Apr 10, 4:50 PM)29.86 "Hg (Apr 17, 4:50 AM)
Average53 °F54%30.25 "Hg
* Reported Apr 6 1:20 PM — Apr 21 1:20 PM, Homburg (Saar), Weather by CustomWeather, © 2015

Note: Actual official high and low records may vary slightly from our data, if they occured in-between our weather recording intervals... More about our weather records

Advertising

Homburg (Saar) weather history for previous 24 hours

 ConditionsComfort  
Time TempWeatherWind HumidityBarometerVisibility
1:20 PM
Tue, Apr 21
66 °FPassing clouds.7 mph30%30.39 "HgN/A
12:50 PM66 °FPassing clouds.10 mph32%30.39 "HgN/A
12:20 PM64 °FPassing clouds.9 mph34%30.39 "HgN/A
11:50 AM64 °FPassing clouds.8 mph34%30.39 "HgN/A
11:20 AM63 °FPassing clouds.7 mph39%30.39 "HgN/A
10:50 AM61 °FPassing clouds.8 mph42%30.39 "HgN/A
10:20 AM61 °FPassing clouds.7 mph45%30.39 "HgN/A
9:50 AM57 °FPassing clouds.7 mph51%30.39 "HgN/A
9:20 AM55 °FSunny.8 mph55%30.39 "Hg10 mi
8:50 AM54 °FSunny.8 mph54%30.39 "Hg10 mi
8:20 AM52 °FSunny.8 mph58%30.36 "Hg10 mi
7:50 AM50 °FSunny.9 mph58%30.36 "Hg10 mi
7:20 AM48 °FClear.10 mph62%30.36 "Hg10 mi
6:50 AM46 °FClear.10 mph62%30.36 "Hg10 mi
6:20 AM48 °FClear.12 mph58%30.33 "Hg10 mi
5:20 AM48 °FClear.12 mph58%30.33 "Hg10 mi
4:50 AM48 °FClear.9 mph58%30.33 "Hg10 mi
4:20 AM48 °FClear.9 mph58%30.33 "Hg10 mi
3:50 AM48 °FClear.9 mph58%30.33 "Hg10 mi
3:20 AM50 °FClear.9 mph54%30.33 "Hg10 mi
2:50 AM50 °FClear.9 mph54%30.33 "Hg10 mi
2:20 AM50 °FClear.9 mph54%30.33 "Hg10 mi
1:50 AM50 °FClear.6 mph50%30.33 "Hg10 mi
1:20 AM52 °FClear.6 mph47%30.33 "Hg10 mi
12:50 AM52 °FClear.6 mph47%30.33 "Hg10 mi
12:20 AM50 °FClear.7 mph54%30.33 "Hg10 mi
11:50 PM
Mon, Apr 20
48 °FClear.1 mph54%30.30 "Hg10 mi
11:20 PM50 °FClear.3 mph50%30.30 "Hg10 mi
10:50 PM52 °FClear.3 mph47%30.30 "Hg10 mi
10:20 PM52 °FClear.5 mph47%30.30 "Hg10 mi
9:50 PM54 °FClear.2 mph41%30.30 "Hg10 mi
9:20 PM55 °FSunny.5 mph38%30.30 "Hg10 mi
8:50 PM57 °FSunny.6 mph36%30.27 "Hg10 mi
8:20 PM59 °FSunny.6 mph34%30.27 "Hg10 mi
7:50 PM61 °FSunny.7 mph34%30.27 "Hg10 mi
7:20 PM63 °FSunny.12 mph30%30.27 "Hg10 mi
6:50 PM64 °FSunny.13 mph30%30.24 "Hg10 mi
6:20 PM64 °FPassing clouds.9 mph28%30.24 "HgN/A
5:50 PM64 °FPassing clouds.13 mph26%30.24 "HgN/A
5:20 PM64 °FPassing clouds.12 mph28%30.27 "HgN/A
4:50 PM64 °FPassing clouds.13 mph26%30.27 "HgN/A
4:20 PM64 °FPassing clouds.10 mph24%30.27 "HgN/A
3:50 PM64 °FPassing clouds.10 mph28%30.27 "HgN/A
3:20 PM64 °FPassing clouds.9 mph28%30.27 "HgN/A
2:50 PM64 °FPassing clouds.13 mph28%30.27 "HgN/A
2:20 PM64 °FPassing clouds.10 mph28%30.27 "HgN/A
Weather by CustomWeather, © 2015

See weather overviewHow to use our weather pages